カタログに戻る

METEOR 2-17 DEB

運用中PO
NORAD 28992·DEBRIS·🇷🇺 Russia

打ち上げ Jan 30, 1988 から Plesetsk Cosmodrome

Loading…

次のパス (今後24時間)

TLE

最新Source: Space-Track

元期: Sep 14, 2026, 14:40 UTC

1 28992U 88005G   26257.61146128  .00000451  00000-0  29234-3 0  9995
2 28992  82.5396 207.0108 0009901  40.1630  81.5124 14.00689690673062

AllMySatでMETEOR 2-17 DEBをリアルタイム追跡

Download on the App Store